Date String (YYYY-MM-DD hh:mm:ss) UTC,Instrument flags,absolute air pressure of the measurement (hPa),sample flow rate (lpm),inlet stack bypass flow (lpm),air temperature of the measurement (°C),ambient temperature measured by the external sensor (°C),aerosol sample conditioner tube jacket temperature (°C),OPC LED temperature (°C),internal box temperature (°C),relative humidity of the measurement (%),span deviation,mass concentration of particles derived from Lorenz-Mie calculation of OPC scattering (μg/m³),mass concentration of particles derived from Lorenz-Mie calculation of OPC scattering (μg/m³),mass concentration of particles derived from Lorenz-Mie calculation of OPC scattering (μg/m³)
DateTimeUTC,F1_M11,P_M11,Q1_M11,Q2_M11,T1_M11,T2_M11,T3_M11,T4_M11,T5_M11,U1_M11,ZSPAN_M11,X0_M11,X2_M11,X1_M11
2024-02-25 13:00:00,SystemResetWarning,0822.8,5.01,000.00,019.3,018.5,000.0,027.6,020.9,06.7,0000.0,0012.72,0004.01,0001.60
2024-02-25 13:01:00,SystemResetWarning,0822.8,5.00,000.00,019.3,018.5,000.0,027.6,020.9,06.9,0000.0,0012.41,0004.02,0001.60
2024-02-25 13:02:00,SystemResetWarning,0822.8,4.99,000.00,019.3,018.5,000.0,027.6,020.9,06.7,0000.0,0012.39,0004.06,0001.60
2024-02-25 13:03:00,SystemResetWarning,0823.1,4.99,000.00,019.3,018.5,000.0,027.6,020.9,06.7,0000.0,0013.24,0004.10,0001.61
2024-02-25 13:04:00,SystemResetWarning,0823.0,5.01,000.00,019.3,018.5,000.0,027.6,020.9,06.5,0000.0,0014.06,0004.08,0001.61
2024-02-25 13:05:00,SystemResetWarning,0822.9,5.01,000.00,019.3,018.5,000.0,027.6,020.9,06.6,0000.0,0014.50,0004.02,0001.63
2024-02-25 13:06:00,SystemResetWarning,0822.7,5.00,000.00,019.3,018.5,000.0,027.5,020.9,06.6,0000.0,0014.77,0004.01,0001.62
2024-02-25 13:07:00,SystemResetWarning,0822.8,5.00,000.00,019.3,018.5,000.0,027.6,020.9,06.5,0000.0,0014.41,0003.96,0001.60
2024-02-25 13:08:00,SystemResetWarning,0823.0,4.99,000.00,019.3,018.5,000.0,027.6,020.8,06.8,0000.0,0014.24,0003.89,0001.61
2024-02-25 13:09:00,SystemResetWarning,0823.1,5.00,000.00,019.3,018.5,000.0,027.5,020.8,06.9,0000.0,0014.19,0003.89,0001.62
2024-02-25 13:10:00,SystemResetWarning,0822.9,5.00,000.00,019.2,018.5,000.0,027.5,020.8,06.7,0000.0,0013.98,0003.92,0001.63
2024-02-25 13:11:00,SystemResetWarning,0823.1,5.00,000.00,019.2,018.4,000.0,027.5,020.8,06.7,0000.0,0013.49,0003.95,0001.64
2024-02-25 13:12:00,SystemResetWarning,0823.1,5.00,000.00,019.2,018.4,000.0,027.5,020.8,06.8,0000.0,0014.08,0003.92,0001.64
2024-02-25 13:13:00,SystemResetWarning,0822.9,5.00,000.00,019.2,018.4,000.0,027.5,020.8,06.8,0000.0,0014.06,0003.88,0001.64
2024-02-25 13:14:00,SystemResetWarning,0822.9,5.00,000.00,019.2,018.4,000.0,027.5,020.8,06.8,0000.0,0014.40,0003.88,0001.62
2024-02-25 13:15:00,SystemResetWarning,0823.0,5.00,000.00,019.2,018.4,000.0,027.5,020.8,06.8,0000.0,0014.04,0003.88,0001.59
2024-02-25 13:16:00,SystemResetWarning,0823.1,4.99,000.00,019.2,018.4,000.0,027.5,020.8,06.4,0000.0,0014.97,0003.94,0001.59
2024-02-25 13:17:00,SystemResetWarning,0822.9,5.00,000.00,019.2,018.4,000.0,027.5,020.8,06.7,0000.0,0014.97,0003.97,0001.59
2024-02-25 13:18:00,SystemResetWarning,0823.0,5.00,000.00,019.2,018.4,000.0,027.4,020.8,06.9,0000.0,0015.88,0003.94,0001.59
2024-02-25 13:19:00,SystemResetWarning,0823.0,5.00,000.00,019.2,018.4,000.0,027.4,020.8,06.9,0000.0,0016.10,0004.03,0001.59
2024-02-25 13:20:00,SystemResetWarning,0823.0,5.00,000.00,019.2,018.4,000.0,027.4,020.8,06.8,0000.0,0016.00,0004.03,0001.58
2024-02-25 13:21:00,SystemResetWarning,0823.1,5.00,000.00,019.2,018.4,000.0,027.4,020.8,06.7,0000.0,0016.73,0004.05,0001.56
2024-02-25 13:22:00,SystemResetWarning,0822.9,5.00,000.00,019.2,018.4,000.0,027.4,020.8,06.8,0000.0,0016.96,0004.02,0001.55
2024-02-25 13:23:00,SystemResetWarning,0822.6,5.00,000.00,019.2,018.4,000.0,027.4,020.7,06.7,0000.0,0016.77,0004.06,0001.57
2024-02-25 13:24:00,SystemResetWarning,0822.8,5.00,000.00,019.1,018.4,000.0,027.4,020.8,06.7,0000.0,0016.69,0004.11,0001.57
2024-02-25 13:25:00,SystemResetWarning,0822.8,5.00,000.00,019.1,018.4,000.0,027.4,020.8,06.7,0000.0,0015.92,0004.14,0001.58
2024-02-25 13:26:00,SystemResetWarning,0822.8,5.00,000.00,019.1,018.3,000.0,027.4,020.7,06.9,0000.0,0015.25,0004.20,0001.63
2024-02-25 13:27:00,SystemResetWarning,0822.9,5.00,000.00,019.1,018.3,000.0,027.4,020.7,06.8,0000.0,0014.04,0004.20,0001.63
2024-02-25 13:28:00,SystemResetWarning,0822.9,4.99,000.00,019.1,018.3,000.0,027.4,020.7,06.9,0000.0,0013.45,0004.20,0001.62
2024-02-25 13:29:00,SystemResetWarning,0822.9,4.99,000.00,019.1,018.3,000.0,027.4,020.7,07.2,0000.0,0013.34,0004.25,0001.64
2024-02-25 13:30:00,SystemResetWarning,0822.7,5.00,000.00,019.1,018.3,000.0,027.3,020.7,07.1,0000.0,0013.81,0004.17,0001.63
2024-02-25 13:31:00,SystemResetWarning,0822.7,5.01,000.00,019.1,018.3,000.0,027.3,020.7,07.1,0000.0,0013.87,0004.11,0001.62
2024-02-25 13:32:00,SystemResetWarning,0822.7,5.00,000.00,019.1,018.3,000.0,027.3,020.7,07.3,0000.0,0013.33,0004.08,0001.64
2024-02-25 13:33:00,SystemResetWarning,0822.7,4.99,000.00,019.1,018.3,000.0,027.3,020.6,07.1,0000.0,0013.52,0004.06,0001.65
2024-02-25 13:34:00,SystemResetWarning,0822.9,5.00,000.00,019.1,018.3,000.0,027.3,020.6,07.1,0000.0,0013.89,0004.02,0001.64
2024-02-25 13:35:00,SystemResetWarning,0822.9,5.00,000.00,019.1,018.3,000.0,027.3,020.6,07.2,0000.0,0014.35,0003.97,0001.64
2024-02-25 13:36:00,SystemResetWarning,0823.1,5.00,000.00,019.1,018.3,000.0,027.3,020.6,07.1,0000.0,0015.51,0003.99,0001.65
2024-02-25 13:37:00,SystemResetWarning,0822.9,4.99,000.00,019.1,018.3,000.0,027.3,020.6,07.1,0000.0,0015.79,0003.93,0001.62
2024-02-25 13:38:00,SystemResetWarning,0823.0,5.00,000.00,019.0,018.3,000.0,027.3,020.7,07.1,0000.0,0015.81,0003.90,0001.62
2024-02-25 13:39:00,SystemResetWarning,0823.2,5.00,000.00,019.0,018.3,000.0,027.3,020.6,07.2,0000.0,0016.96,0003.86,0001.62
2024-02-25 13:40:00,SystemResetWarning,0823.2,5.01,000.00,019.0,018.2,000.0,027.3,020.6,07.3,0000.0,0016.98,0003.81,0001.64
2024-02-25 13:41:00,SystemResetWarning,0823.1,5.00,000.00,019.0,018.2,000.0,027.3,020.6,07.4,0000.0,0016.75,0003.83,0001.65
2024-02-25 13:42:00,SystemResetWarning,0823.1,5.01,000.00,019.0,018.2,000.0,027.3,020.6,07.2,0000.0,0017.20,0003.86,0001.68
2024-02-25 13:43:00,SystemResetWarning,0823.4,5.00,000.00,019.0,018.2,000.0,027.2,020.6,07.2,0000.0,0017.23,0003.90,0001.69
2024-02-25 13:44:00,SystemResetWarning,0823.4,4.99,000.00,019.0,018.2,000.0,027.2,020.6,07.3,0000.0,0016.53,0003.91,0001.68
2024-02-25 13:45:00,SystemResetWarning,0823.3,4.99,000.00,019.0,018.2,000.0,027.2,020.6,07.3,0000.0,0015.85,0003.92,0001.69
2024-02-25 13:46:00,SystemResetWarning,0823.4,5.00,000.00,019.0,018.2,000.0,027.2,020.5,07.0,0000.0,0015.09,0003.92,0001.69
2024-02-25 13:47:00,SystemResetWarning,0823.6,5.01,000.00,019.0,018.2,000.0,027.2,020.6,07.0,0000.0,0013.98,0003.92,0001.69
2024-02-25 13:48:00,SystemResetWarning,0823.7,5.01,000.00,019.0,018.2,000.0,027.2,020.5,06.5,0000.0,0014.18,0003.97,0001.70
2024-02-25 13:49:00,SystemResetWarning,0823.6,4.99,000.00,019.0,018.2,000.0,027.2,020.5,06.8,0000.0,0014.26,0003.97,0001.69
2024-02-25 13:50:00,SystemResetWarning,0823.7,4.99,000.00,019.0,018.2,000.0,027.2,020.5,06.9,0000.0,0013.20,0003.94,0001.69
2024-02-25 13:51:00,SystemResetWarning,0823.8,5.00,000.00,019.0,018.2,000.0,027.2,020.6,07.2,0000.0,0012.33,0003.99,0001.69
2024-02-25 13:52:00,SystemResetWarning,0823.7,5.00,000.00,019.0,018.2,000.0,027.2,020.6,07.3,0000.0,0012.04,0004.05,0001.69
2024-02-25 13:53:00,SystemResetWarning,0823.7,5.00,000.00,019.0,018.2,000.0,027.2,020.6,07.4,0000.0,0012.16,0004.06,0001.67
2024-02-25 13:54:00,SystemResetWarning,0823.8,5.00,000.00,019.0,018.3,000.0,027.2,020.6,07.0,0000.0,0011.40,0003.96,0001.66
2024-02-25 13:55:00,SystemResetWarning,0823.8,5.01,000.00,019.0,018.3,000.0,027.2,020.5,07.2,0000.0,0011.69,0003.94,0001.67
2024-02-25 13:56:00,SystemResetWarning,0823.8,5.00,000.00,019.0,018.3,000.0,027.2,020.5,07.2,0000.0,0011.53,0003.93,0001.67
2024-02-25 13:57:00,SystemResetWarning,0823.8,5.00,000.00,019.0,018.3,000.0,027.2,020.5,07.2,0000.0,0012.18,0003.93,0001.67
2024-02-25 13:58:00,SystemResetWarning,0823.8,4.99,000.00,019.0,018.3,000.0,027.2,020.6,07.1,0000.0,0012.83,0003.94,0001.67
2024-02-25 13:59:00,SystemResetWarning,0823.8,4.99,000.00,019.0,018.3,000.0,027.2,020.6,06.9,0000.0,0012.58,0003.88,0001.67
